Погода в Толдзгуне

Россия / Республика Северная Осетия — Алания     43°13′44″N   43°49′29″E
темп.,
°C
ветер,
м/с
пор.,
м/с
влажн.,
%
обл.,
%
осадки,
мм/ч
давл.,
гПа
погр.,
м
8 марта, пн
пн800:00−7юз127324 0.0 102232
03:00−8зюз227612 0.0 102235
06:00−7юз23743 0.0 102236
09:00−3с117123 0.0 1020397
12:000всв227098 0.1 1018845
15:000в116898 0.1 1017826
18:00−3ююз1285100 0.2 101834
21:00−5юз238185 0.3 102042
9 марта, вт
вт900:00−6юз237565 0.0 101936
03:00−6юз237066 0.0 101943
06:00−6юз227277 0.0 101942
09:00−1всв127063 0.0 1018322
12:00+1вюв117211 0.0 1016700
15:00+2вюв117220 0.0 1016698
18:00−2юз117750 0.0 101823
21:00−3юз237875 0.0 102148
10 марта, ср
ср1000:00−5юз2389100 0.4 1022101
03:00−5юз2389100 1.3 1024113
06:00−6юз3390100 0.8 102581
09:00−3всв239499 1.8 1024325
12:00−3всв3389100 0.8 1022492
15:00−2всв3386100 1.3 1021500
18:00−4всв1298100 0.6 102172
21:00−4всв1297100 1.4 1022103
11 марта, чт
чт1100:00−4ссв2398100 1.6 1020205
03:00−6ссз1297100 3.6 1019158
06:00−7сз1196100 1.3 1019121
09:00−6сз1292100 1.9 1018271
12:00−4св4594100 1.9 1017557
15:00−6св4795100 5.5 1016594
18:00−8св3597100 4.1 1020384
21:00−9св2497100 6.8 1021328
12 марта, пт
пт1200:00−11св1297100 1.2 1022108
03:00−11зсз0197100 2.4 1023100
06:00−12зсз1296100 1.1 1026117
09:00−11ссв2292100 1.8 1027435
12:00−8св3391100 0.6 1027570
15:00−8всв3493100 1.4 1028523
18:00−10св2397100 1.1 1031157
21:00−13ююз1195100 1.5 103420